Regional Weather Roundup
Issued by NWS Charleston, WV

Home | Current Version | Previous Version | Text Only | Print | Product List | Glossary Off
Versions: 1 2 3 4 5 6 7 8 9 10 11 12 13 14 15 16 17 18 19 20 21 22 23 24 25 26 27 28 29 30 31 32 33 34 35 36 37 38 39 40 41 42 43 44 45 46 47 48 49 50

000
ASUS41 KRLX 221710
RWRRLX
West Virginia Regional Weather Roundup
National Weather Service Charleston WV
100 PM EDT SAT JUL 22 2017

Note: "fair" indicates few or no clouds below 12,000 feet with no
significant weather and/or obstructions to visibility.

WVZ003-221800-
Northern Panhandle of West Virginia

CITY           SKY/WX    TMP DP  RH WIND       PRES   REMARKS
WHEELING       RAIN      71  69  93 S7        29.91F FOG
$$

WVZ009-221800-
Northwest West Virginia

CITY           SKY/WX    TMP DP  RH WIND       PRES   REMARKS
PARKERSBURG    PTSUNNY   78  74  87 S8        29.93S
$$

WVZ006-221800-
Western West Virginia

CITY           SKY/WX    TMP DP  RH WIND       PRES   REMARKS
HUNTINGTON     MOSUNNY   89  76  65 W7        29.93S HX 100
$$

WVZ015-221800-
West Central West Virginia

CITY           SKY/WX    TMP DP  RH WIND       PRES   REMARKS
CHARLESTON     CLOUDY    89  74  60 VRB5G18   29.93F HX  98
$$

WVZ022-031-221800-
North Central West Virginia

CITY           SKY/WX    TMP DP  RH WIND       PRES   REMARKS
CLARKSBURG     CLOUDY    75  69  81 SE3       29.94F
MORGANTOWN     LGT RAIN  71  69  93 S5        29.94F
$$

WVZ025-035-042-045-221800-
Southern West Virginia

CITY           SKY/WX    TMP DP  RH WIND       PRES   REMARKS
BECKLEY        CLOUDY    85  68  56 SW12      30.06F
LOGAN            N/A     88  73  62 W3        29.99F HX  96
BLUEFIELD      MOSUNNY   84  68  58 W15       30.10F
LEWISBURG      CLOUDY    86  67  52 W13       30.04F
$$

WVZ047-221800-
Northern Mountains of West Virginia

CITY           SKY/WX    TMP DP  RH WIND       PRES   REMARKS
ELKINS         LGT RAIN  77  68  73 N8        29.99F
$$

WVZ052-221800-
Eastern Panhandle of West Virginia

CITY           SKY/WX    TMP DP  RH WIND       PRES   REMARKS
MARTINSBURG    PTSUNNY   86  69  56 SW8       29.89F
PETERSBURG     CLOUDY    79  74  84 CALM      29.95R THUNDER
$$



USA.gov is the U.S. government's official web portal to all federal, state and local government web resources and services.